Regional Weather Roundup
Issued by NWS Jackson, KY

Home | Current Version | Previous Version | Graphics & Text | Print | Product List | Glossary On
Versions: 1 2 3 4 5 6 7 8 9 10 11 12 13 14 15 16 17 18 19 20 21 22 23 24 25 26 27 28 29 30 31 32 33 34 35 36 37 38 39 40 41 42 43 44 45 46 47 48 49 50
000
ASUS43 KJKL 220910
RWRJKL

EAST KENTUCKY HOURLY WEATHER ROUNDUP
NATIONAL WEATHER SERVICE JACKSON KY
500 AM EDT WED OCT 22 2014

NOTE: "FAIR" INDICATES FEW OR NO CLOUDS BELOW 12,000 FEET WITH
NO SIGNIFICANT WEATHER AND/OR OBSTRUCTIONS TO VISIBILITY.

* THESE REPORTS ARE NOT UNDER NWS QUALITY CONTROL AND MAY NOT
  REPORT WEATHER SUCH AS PRECIPITATION AND FOG.

KYZ079-080-083-085-087-088-110-112-115-119-120-221000
...EASTERN KENTUCKY...

CITY           SKY/WX    TMP DP  RH WIND       PRES   REMARKS
JACKSON        CLEAR     42  39  89 N3        30.14R
LONDON         CLEAR     45  37  73 N6        30.16R
SOMERSET*      CLEAR     43  37  81 NE3       30.18R
MONTICELLO*    CLEAR     46  42  86 N7        30.18R
WILLIAMSBURG*  MOCLDY    46  45  93 CALM      30.15R
MIDDLESBORO*   CLOUDY    48  42  79 N3        30.14R
HARLAN APT*    CLOUDY    45  37  76 E3        30.13R
BLACK MTN*       N/A     30  30 100 N14         N/A  WCI  20
PIKEVILLE APT* CLOUDY    43  39  87 NW5       30.13R
BIG SANDY*     CLOUDY    44  41  87 NW5       30.13R
MOREHEAD APT*  CLOUDY    43  39  87 NW6       30.19R
$$

KYZ035-036-041-042-044-050-067-078-099-221000
...CENTRAL KENTUCKY...

CITY           SKY/WX    TMP DP  RH WIND       PRES   REMARKS
MT STERLING*   PTCLDY    41  39  93 N3        30.19R
FLEMING/MASON* CLOUDY    45  39  81 N6        30.19R
DANVILLE*      MOCLDY    41  39  93 N5        30.20R
RICHMOND*      PTCLDY    41  39  93 CALM      30.17S
LEXINGTON      CLOUDY    45  39  79 N5        30.19R
FRANKFORT      CLOUDY    45  37  73 N5        30.19R
$$

KYZ091>093-OHZ055-061-077-WVZ005-015-034-035-042-221000
...SOUTHERN OHIO/WEST VIRGINIA...

CITY           SKY/WX    TMP DP  RH WIND       PRES   REMARKS
COVINGTON      CLOUDY    46  37  71 N7        30.20R
COLUMBUS       CLOUDY    45  41  86 NW10      30.17R
DAYTON         MOCLDY    43  38  82 N9        30.22S
WILMINGTON     CLOUDY    44  38  79 N10       30.19R
HUNTINGTON     CLOUDY    45  41  86 N7        30.14R
CHARLESTON     CLOUDY    45  42  89 VRB6      30.11R
PINEVILLE*     CLOUDY    46  44  93 MISG      30.13R
BECKLEY        CLOUDY    41  39  93 NW12      30.05R
BLUEFIELD      CLOUDY    42  37  82 NW6       30.05S
$$

VAZ002-007-008-TNZ017-027-036-066-071-221000
...SOUTHWEST VIRGINIA/EAST TENNESSEE...

CITY           SKY/WX    TMP DP  RH WIND       PRES   REMARKS
WISE*          CLOUDY    41  41 100 N7        30.10R
JONESVILLE*    CLOUDY    46  41  81 CALM      30.14R
ABINGDON*      CLOUDY    46  40  81 CALM      30.08S
BRISTOL        CLOUDY    47  39  74 N6        30.10R
KNOXVILLE      CLEAR     45  40  82 N6        30.11R
OAK RIDGE      CLEAR     42  39  89 CALM      30.14R
CROSSVILLE     CLEAR     43  38  82 N3        30.13R
NASHVILLE      CLEAR     45  41  86 N5        30.17R
$$

...KEY TO REMARKS...
VSB - VISIBILITY IN MILES
WCI - WIND CHILL INDEX
HX  - HEAT INDEX

$$



USA.gov is the U.S. government's official web portal to all federal, state and local government web resources and services.